Location: Unspecified
(0.0000°N, 0.0000°E)
Time: 22:43:36
(UTC+02:00)

Altair - All Passes

Search period start: 25 May 2018 00:00
Search period end: 04 June 2018 00:00
Orbit: 1501 x 1683 km, 47.2° (Epoch: 24 May)

Date Brightness Start Highest point End Pass type
(mag) Time Alt. Az. Time Alt. Az. Time Alt. Az.
25 May - 04:56:51 10° SSW 05:06:05 48° SE 05:15:34 10° ENE visible
25 May - 07:01:54 10° WSW 07:10:44 38° NW 07:19:50 10° NNE visible
25 May - 15:45:16 10° N 15:51:36 19° NE 15:57:47 10° E daylight
25 May - 17:46:53 10° NW 17:56:29 84° SW 18:05:46 10° SE daylight
25 May - 19:56:25 10° WSW 20:01:16 15° SW 20:06:07 10° SSW daylight
26 May - 04:31:55 10° SSW 04:40:54 43° SE 04:50:08 10° ENE visible
26 May - 06:36:28 10° WSW 06:45:32 42° NW 06:54:52 10° NNE visible
26 May - 15:20:42 10° N 15:26:21 17° NE 15:31:52 10° E daylight
26 May - 17:21:42 10° NW 17:31:21 87° NE 17:40:39 10° SE daylight
26 May - 19:30:19 10° W 19:36:02 18° SW 19:41:44 10° S daylight
27 May - 04:07:01 10° SSW 04:15:43 38° SE 04:24:40 10° ENE visible
27 May - 06:11:05 10° WSW 06:20:20 47° NW 06:29:52 10° NNE visible
27 May - 14:56:16 10° NNE 15:01:04 14° NE 15:05:46 10° ENE daylight
27 May - 16:56:32 10° NW 17:06:11 79° NE 17:15:30 10° SE daylight
27 May - 19:04:24 10° W 19:10:49 20° SW 19:17:11 10° S daylight
28 May - 03:42:08 10° SSW 03:50:32 34° SE 03:59:08 10° ENE visible
28 May - 05:45:45 10° SW 05:55:08 53° NW 06:04:50 10° NNE visible
28 May - 14:32:07 10° NNE 14:35:46 12° NE 14:39:21 10° ENE daylight
28 May - 16:31:24 10° NNW 16:41:03 71° NE 16:50:19 10° SE daylight
28 May - 18:38:36 10° W 18:45:37 23° SW 18:52:33 10° S daylight
29 May - 03:17:19 10° S 03:25:20 30° SE 03:33:32 10° ENE visible
29 May - 05:20:28 10° SW 05:29:57 59° NW 05:39:46 10° NNE visible
29 May - 14:08:45 10° NNE 14:10:27 10° NE 14:12:09 10° NE daylight
29 May - 16:06:19 10° NNW 16:15:53 63° NE 16:25:06 10° SE daylight
29 May - 18:12:54 10° WNW 18:20:26 27° SW 18:27:51 10° S daylight
30 May - 02:52:33 10° S 03:00:08 26° SE 03:07:52 10° ENE visible
30 May - 04:55:13 10° SW 05:04:46 66° NW 05:14:40 10° NNE visible
30 May - 07:07:07 10° WNW 07:10:13 12° NW 07:13:21 10° NNW visible
30 May - 15:41:14 10° NNW 15:50:43 57° NE 15:59:51 10° SE daylight
30 May - 17:47:16 10° WNW 17:55:14 30° SW 18:03:04 10° S daylight
31 May - 02:27:50 10° S 02:34:55 23° SE 02:42:08 10° E visible
31 May - 04:30:00 10° SW 04:39:35 74° NW 04:49:33 10° NNE visible
31 May - 06:40:26 10° WNW 06:44:53 14° NW 06:49:24 10° NNW visible
31 May - 15:16:11 10° NNW 15:25:33 51° NE 15:34:34 10° ESE daylight
31 May - 17:21:42 10° WNW 17:30:04 34° SW 17:38:15 10° SSE daylight
01 Jun - 02:03:13 10° S 02:09:42 20° SE 02:16:17 10° E night (unlit)
01 Jun - 04:04:49 10° SW 04:14:25 82° NW 04:24:23 10° NE visible
01 Jun - 06:14:12 10° W 06:19:35 16° NW 06:25:04 10° N visible
01 Jun - 14:51:10 10° NNW 15:00:22 45° NE 15:09:14 10° ESE daylight
01 Jun - 16:56:12 10° WNW 17:04:54 39° SW 17:13:23 10° SSE daylight
02 Jun - 01:38:42 10° S 01:44:28 17° SE 01:50:19 10° E night (unlit)
02 Jun - 03:39:40 10° SW 03:49:15 90° WNW 03:59:12 10° NE visible
02 Jun - 05:48:10 10° W 05:54:17 18° NW 06:00:33 10° N visible
02 Jun - 14:26:10 10° NNW 14:35:11 40° NE 14:43:52 10° ESE daylight
02 Jun - 16:30:44 10° WNW 16:39:44 44° SW 16:48:29 10° SSE daylight
03 Jun - 01:14:19 10° SSE 01:19:13 15° SE 01:24:10 10° ESE night (unlit)
03 Jun - 03:14:33 10° SW 03:24:05 82° SE 03:33:59 10° NE visible
03 Jun - 05:22:18 10° W 05:29:01 21° NW 05:35:55 10° N visible
03 Jun - 14:01:13 10° NNW 14:09:59 36° NE 14:18:26 10° ESE daylight
03 Jun - 16:05:20 10° WNW 16:14:35 49° SW 16:23:32 10° SSE daylight
